period_start,C,m1,H,J0,J1,J2,J3,J4,J5,JA,JB,JC,JD,JJ,JK,JN,#
2018-06-13 00:04:51,-0.04,0.98,0.00,27.08,30.77,33.44,13.78,48.49,1018.64,2011.45,3029.00,2779.99,3199.00,599.85,588.98,23.41,0000 0000 0000 0000 000000
2018-06-13 00:09:52,0.02,0.98,0.00,27.10,30.77,33.43,13.77,48.52,1018.62,2011.62,3029.00,2779.99,3199.00,599.78,588.80,23.46,0000 0000 0000 0000 000000
2018-06-13 00:14:53,0.01,0.98,0.00,27.10,30.77,33.45,13.81,48.46,1018.58,2011.72,3028.94,2779.90,3198.96,599.87,588.91,23.51,0000 0000 0000 0000 000000
2018-06-13 00:19:54,-0.00,0.98,0.00,27.10,30.77,33.47,13.72,48.33,1018.57,2011.48,3028.68,2779.61,3198.69,599.94,588.97,23.56,0000 0000 0000 0000 000000
2018-06-13 00:24:55,0.03,0.98,0.00,27.12,30.77,33.45,13.78,48.35,1018.57,2011.59,3028.36,2779.45,3198.54,600.05,589.06,23.61,0000 0000 0000 0000 000000
2018-06-13 00:29:56,-0.02,0.98,0.00,27.13,30.78,33.47,13.74,48.38,1018.58,2011.45,3028.03,2779.08,3198.16,599.90,588.87,23.66,0000 0000 0000 0000 000000
2018-06-13 00:34:57,0.01,0.98,0.00,27.13,30.79,33.48,13.83,48.37,1018.57,2011.34,3028.00,2779.01,3198.02,600.30,589.29,23.71,0000 0000 0000 0000 000000
2018-06-13 00:39:59,0.01,0.98,0.00,27.15,30.80,33.49,13.72,48.33,1018.58,2011.39,3027.99,2779.00,3198.00,599.46,588.42,23.76,0000 0000 0000 0000 000000
2018-06-13 00:45:00,-0.01,0.98,0.00,27.15,30.80,33.50,13.79,48.43,1018.58,2011.23,3027.71,2778.99,3197.99,599.82,588.64,23.81,0000 0000 0000 0000 000000
2018-06-13 00:50:01,0.06,0.98,0.00,27.17,30.80,33.51,13.78,48.42,1018.57,2011.13,3026.85,2778.48,3197.44,600.24,589.15,23.86,0000 0000 0000 0000 000000
2018-06-13 00:55:03,0.07,0.99,0.00,27.19,30.81,33.53,13.77,48.33,1018.57,2011.21,3026.00,2777.04,3196.00,599.81,588.72,23.91,0000 0000 0000 0000 000000
2018-06-13 01:00:04,0.01,0.99,0.00,27.22,30.82,33.50,13.74,48.37,1018.57,2011.28,3025.68,2777.00,3195.66,599.79,588.58,23.96,0000 0000 0000 0000 000000
2018-06-13 01:05:06,0.01,0.99,0.00,27.22,30.82,33.53,13.77,48.38,1018.56,2011.23,3025.11,2776.96,3195.12,599.98,588.76,24.01,0000 0000 0000 0000 000000
2018-06-13 01:10:07,0.00,0.99,0.00,27.23,30.83,33.52,13.73,48.44,1018.57,2011.21,3025.00,2776.86,3195.01,599.92,588.71,24.06,0000 0000 0000 0000 000000
2018-06-13 01:15:08,0.01,0.99,0.00,27.25,30.85,33.54,13.68,48.28,1018.57,2011.13,3024.98,2776.22,3195.00,599.56,588.15,24.11,0000 0000 0000 0000 000000
2018-06-13 01:20:09,-0.00,0.99,0.00,27.25,30.85,33.54,13.81,48.38,1018.55,2011.09,3024.90,2776.04,3194.97,600.14,588.87,24.16,0000 0000 0000 0000 000000
2018-06-13 01:25:10,0.01,0.99,0.00,27.27,30.87,33.55,13.79,48.34,1018.53,2011.04,3024.26,2776.00,3194.79,600.12,588.67,24.21,0000 0000 0000 0000 000000
2018-06-13 01:30:11,0.01,0.99,0.00,27.27,30.87,33.58,13.75,48.33,1018.37,2011.02,3024.04,2776.00,3194.24,599.83,588.41,24.27,0000 0000 0000 0000 000000
2018-06-13 01:35:12,0.00,0.99,0.00,27.30,30.89,33.57,13.84,48.35,1018.45,2011.01,3024.00,2775.97,3194.01,600.43,588.96,24.32,0000 0000 0000 0000 000000
2018-06-13 01:40:13,0.01,0.99,0.00,27.32,30.90,33.58,13.85,48.47,1018.33,2011.01,3023.99,2775.87,3194.00,600.39,588.87,24.37,0000 0000 0000 0000 000000
2018-06-13 01:45:15,0.02,0.99,0.00,27.33,30.92,33.60,13.75,48.35,1018.22,2011.00,3023.76,2775.35,3193.99,599.82,588.19,24.42,0000 0000 0000 0000 000000
2018-06-13 01:50:16,0.01,0.99,0.00,27.35,30.92,33.63,13.79,48.42,1018.17,2011.00,3023.28,2775.06,3193.94,599.97,588.22,24.47,0000 0000 0000 0000 000000
2018-06-13 01:55:18,0.02,0.99,0.00,27.36,30.95,33.63,13.66,48.42,1018.10,2011.00,3023.04,2775.00,3193.44,599.65,587.89,24.52,0000 0000 0000 0000 000000
2018-06-13 02:00:19,0.00,0.99,0.00,27.40,30.96,33.64,13.82,48.42,1018.08,2011.00,3022.99,2775.00,3193.05,600.31,588.45,24.57,0000 0000 0000 0000 000000
2018-06-13 02:05:20,0.01,0.99,0.00,27.42,30.97,33.65,13.84,48.48,1018.08,2011.00,3022.85,2774.98,3193.01,600.19,588.34,24.62,0000 0000 0000 0000 000000
2018-06-13 02:10:22,0.02,0.99,0.00,27.42,31.00,33.68,13.75,48.46,1018.08,2011.00,3022.17,2774.69,3192.99,600.02,588.25,24.67,0000 0000 0000 0000 000000
2018-06-13 02:15:23,0.02,1.00,0.00,27.43,31.01,33.68,13.72,48.45,1018.08,2011.00,3022.01,2774.21,3192.76,599.74,587.83,24.72,0000 0000 0000 0000 000000
2018-06-13 02:20:25,0.01,1.00,0.00,27.45,31.02,33.71,13.66,48.38,1018.06,2010.99,3021.90,2774.01,3192.11,599.29,587.35,24.77,0000 0000 0000 0000 000000
2018-06-13 02:25:26,0.01,1.00,0.00,27.45,31.05,33.71,13.77,48.33,1018.05,2010.97,3021.34,2773.99,3192.00,599.87,587.87,24.82,0000 0000 0000 0000 000000
2018-06-13 02:30:27,0.01,1.00,0.00,27.46,31.06,33.72,13.77,48.49,1017.94,2010.95,3021.00,2773.78,3191.92,599.90,587.94,24.87,0000 0000 0000 0000 000000
2018-06-13 02:35:29,0.04,1.00,0.00,27.47,31.07,33.73,13.83,48.52,1017.66,2010.95,3020.87,2773.06,3191.17,600.35,588.08,24.92,0000 0000 0000 0000 000000
2018-06-13 02:40:30,0.01,1.00,0.00,27.49,31.10,33.75,13.74,48.39,1017.63,2010.91,3020.21,2773.00,3191.01,600.08,587.74,24.97,0000 0000 0000 0000 000000
2018-06-13 02:45:31,0.01,1.00,0.00,27.51,31.11,33.76,13.72,48.44,1017.60,2010.92,3020.00,2772.94,3190.97,599.74,587.43,25.02,0000 0000 0000 0000 000000
2018-06-13 02:50:32,0.01,1.00,0.00,27.55,31.12,33.79,13.72,48.46,1017.61,2010.81,3019.92,2772.52,3190.67,600.00,587.61,25.07,0000 0000 0000 0000 000000
2018-06-13 02:55:33,0.02,1.00,0.00,27.58,31.15,33.81,13.79,48.47,1017.60,2010.66,3019.27,2772.05,3190.07,600.26,587.81,25.12,0000 0000 0000 0000 000000
2018-06-13 03:00:34,-0.02,1.00,0.00,27.59,31.16,33.81,13.71,48.41,1017.59,2010.44,3019.00,2772.00,3190.00,600.17,587.67,25.17,0000 0000 0000 0000 000000
2018-06-13 03:05:36,-0.02,1.00,0.00,27.61,31.18,33.82,13.74,48.50,1017.59,2010.22,3018.90,2771.98,3189.92,600.14,587.59,25.22,0000 0000 0000 0000 000000
2018-06-13 03:10:37,0.02,1.00,0.00,27.62,31.20,33.83,13.81,48.60,1017.59,2010.10,3018.27,2771.67,3189.38,600.49,587.79,25.27,0000 0000 0000 0000 000000
2018-06-13 03:15:39,0.01,1.00,0.00,27.64,31.22,33.87,13.79,48.53,1017.59,2010.05,3018.02,2771.09,3189.02,600.04,587.51,25.32,0000 0000 0000 0000 000000
2018-06-13 03:20:40,0.01,1.00,0.00,27.67,31.24,33.89,13.75,48.74,1017.59,2010.03,3017.57,2771.00,3188.97,600.10,587.43,25.37,0000 0000 0000 0000 000000
2018-06-13 03:25:41,0.02,1.00,0.00,27.68,31.25,33.88,13.67,48.74,1017.58,2010.00,3017.03,2770.88,3188.44,600.28,587.50,25.42,0000 0000 0000 0000 000000
2018-06-13 03:30:42,0.02,1.01,0.00,27.71,31.27,33.88,13.71,48.62,1017.57,2010.00,3017.00,2770.40,3188.02,599.81,587.06,25.47,0000 0000 0000 0000 000000
2018-06-13 03:35:43,0.00,1.01,0.00,27.76,31.30,33.89,13.66,48.49,1017.49,2010.00,3016.94,2770.10,3188.00,599.76,586.85,25.52,0000 0000 0000 0000 000000
2018-06-13 03:40:45,0.02,1.01,0.00,27.78,31.32,33.94,13.73,48.55,1017.50,2010.00,3016.11,2770.00,3187.81,600.02,587.06,25.57,0000 0000 0000 0000 000000
2018-06-13 03:45:46,0.01,1.01,0.00,27.81,31.35,33.97,13.70,48.55,1017.32,2009.99,3016.00,2769.94,3187.12,599.79,586.79,25.62,0000 0000 0000 0000 000000
2018-06-13 03:50:47,0.01,1.01,0.00,27.84,31.37,33.97,13.77,48.59,1017.33,2009.98,3015.93,2769.60,3187.00,600.21,587.10,25.67,0000 0000 0000 0000 000000
2018-06-13 03:55:49,0.02,1.01,0.00,27.89,31.39,34.02,13.74,48.54,1017.41,2009.96,3015.24,2769.04,3186.88,599.88,586.72,25.72,0000 0000 0000 0000 000000
2018-06-13 04:00:50,-0.02,1.01,0.00,27.94,31.42,34.03,13.76,48.53,1017.42,2009.71,3015.00,2768.99,3186.10,600.35,586.93,25.77,0000 0000 0000 0000 000000
2018-06-13 04:05:51,0.00,1.01,0.00,27.98,31.45,34.05,13.73,48.70,1017.47,2009.48,3014.61,2768.65,3186.00,599.93,586.53,25.82,0000 0000 0000 0000 000000
2018-06-13 04:10:52,0.00,1.01,0.00,28.00,31.48,34.09,13.73,48.67,1017.55,2009.10,3014.05,2768.05,3185.54,599.81,586.54,25.87,0000 0000 0000 0000 000000
2018-06-13 04:15:54,0.01,1.01,0.00,28.03,31.51,34.13,13.73,48.48,1017.52,2009.00,3013.80,2767.97,3185.02,599.77,586.38,25.92,0000 0000 0000 0000 000000
2018-06-13 04:20:55,0.02,1.01,0.00,28.07,31.54,34.15,13.74,48.77,1017.52,2009.00,3013.17,2767.57,3184.89,599.93,586.40,25.97,0000 0000 0000 0000 000000
2018-06-13 04:25:56,0.03,1.01,0.00,28.11,31.57,34.20,13.77,48.55,1017.49,2009.00,3012.64,2767.04,3184.15,600.39,586.82,26.02,0000 0000 0000 0000 000000
2018-06-13 04:30:58,0.05,1.01,0.00,28.15,31.60,34.20,13.69,48.59,1017.51,2008.99,3011.84,2766.44,3183.54,599.48,585.88,26.07,0000 0000 0000 0000 000000
2018-06-13 04:35:59,-0.01,1.02,0.00,28.18,31.63,34.25,13.66,48.67,1017.30,2008.80,3011.37,2766.00,3183.01,599.92,586.16,26.12,0000 0000 0000 0000 000000
2018-06-13 04:41:00,0.01,1.02,0.00,28.22,31.66,34.28,13.66,48.56,1017.26,2008.51,3010.86,2765.68,3182.54,599.63,585.82,26.17,0000 0000 0000 0000 000000
2018-06-13 04:46:01,-0.01,1.02,0.00,28.26,31.69,34.33,13.71,48.57,1017.23,2008.12,3010.18,2765.05,3182.01,600.47,586.49,26.22,0000 0000 0000 0000 000000
2018-06-13 04:51:03,0.01,1.02,0.00,28.30,31.72,34.36,13.73,48.77,1017.15,2008.01,3009.83,2764.95,3181.50,600.47,586.33,26.27,0000 0000 0000 0000 000000
2018-06-13 04:56:04,0.04,1.02,0.00,28.34,31.76,34.39,13.72,48.77,1017.22,2008.00,3009.09,2764.22,3181.01,600.19,585.97,26.32,0000 0000 0000 0000 000000
2018-06-13 05:01:05,0.01,1.02,0.00,28.38,31.79,34.41,13.69,48.56,1017.15,2008.00,3008.94,2764.00,3180.70,599.98,585.72,26.37,0000 0000 0000 0000 000000
2018-06-13 05:06:06,0.02,1.02,0.00,28.44,31.81,34.44,13.67,48.53,1017.14,2007.95,3008.63,2763.95,3180.08,600.13,585.67,26.42,0000 0000 0000 0000 000000
2018-06-13 05:11:08,0.02,1.02,0.00,28.49,31.85,34.47,13.64,48.48,1017.14,2007.77,3007.92,2763.27,3179.81,599.74,585.23,26.47,0000 0000 0000 0000 000000
2018-06-13 05:16:09,0.00,1.02,0.00,28.55,31.88,34.49,13.72,48.41,1017.14,2007.46,3007.18,2762.91,3179.05,600.11,585.48,26.52,0000 0000 0000 0000 000000
2018-06-13 05:21:10,0.01,1.02,0.00,28.58,31.91,34.53,13.70,48.54,1017.12,2007.24,3006.96,2762.19,3178.76,599.51,584.90,26.57,0000 0000 0000 0000 000000
2018-06-13 05:26:11,0.02,1.02,0.00,28.61,31.95,34.54,13.64,48.42,1017.14,2007.04,3006.23,2762.00,3178.09,599.86,585.11,26.62,0000 0000 0000 0000 000000
2018-06-13 05:31:13,0.02,1.02,0.00,28.66,31.99,34.58,13.72,48.58,1017.13,2007.00,3005.91,2761.75,3177.85,599.78,584.99,26.67,0000 0000 0000 0000 000000
2018-06-13 05:36:14,0.04,1.03,0.00,28.70,32.02,34.61,13.67,48.39,1017.13,2007.00,3005.19,2761.04,3177.07,600.25,585.38,26.72,0000 0000 0000 0000 000000
2018-06-13 05:41:16,0.00,1.03,0.00,28.75,32.06,34.64,13.67,48.45,1017.13,2006.99,3004.91,2760.98,3176.97,600.27,585.23,26.77,0000 0000 0000 0000 000000
2018-06-13 05:46:17,0.04,1.03,0.00,28.81,32.10,34.69,13.69,48.46,1017.12,2006.98,3004.32,2760.53,3176.33,600.32,585.21,26.82,0000 0000 0000 0000 000000
2018-06-13 05:51:18,-0.07,1.03,0.00,28.84,32.13,34.72,13.66,48.42,1017.15,2006.39,3004.12,2760.04,3175.99,599.88,584.74,26.87,0000 0000 0000 0000 000000
2018-06-13 05:56:20,0.01,1.03,0.00,28.92,32.18,34.76,13.64,48.44,1017.13,2006.01,3003.81,2759.87,3175.29,600.36,584.99,26.92,0000 0000 0000 0000 000000
2018-06-13 06:01:21,0.02,1.03,0.00,28.97,32.21,34.79,13.68,48.76,1017.16,2005.95,3003.23,2759.14,3174.96,600.00,584.54,26.97,0000 0000 0000 0000 000000
2018-06-13 06:06:23,-0.04,1.03,0.00,29.01,32.25,34.84,13.62,48.56,1017.13,2005.44,3003.00,2758.99,3174.17,599.74,584.17,27.02,0000 0000 0000 0000 000000
2018-06-13 06:11:24,0.03,1.03,0.00,29.06,32.29,34.86,13.67,48.63,1017.11,2005.04,3002.23,2758.47,3173.82,600.07,584.41,27.07,0000 0000 0000 0000 000000
2018-06-13 06:16:25,0.02,1.03,0.00,29.11,32.33,34.90,13.60,48.52,1017.11,2005.00,3001.90,2758.01,3173.06,600.00,584.24,27.12,0000 0000 0000 0000 000000
2018-06-13 06:21:26,0.03,1.03,0.00,29.18,32.37,34.94,13.64,48.52,1017.11,2004.97,3001.10,2757.70,3172.71,599.83,583.96,27.17,0000 0000 0000 0000 000000
2018-06-13 06:26:28,0.03,1.03,0.00,29.23,32.41,34.97,13.65,48.52,1017.11,2004.93,3000.48,2757.05,3172.03,600.11,584.14,27.22,0000 0000 0000 0000 000000
2018-06-13 06:31:29,-0.05,1.03,0.00,29.29,32.45,35.02,13.59,48.52,1017.11,2004.36,2999.98,2756.84,3171.39,599.95,583.85,27.27,0000 0000 0000 0000 000000
2018-06-13 06:36:30,0.02,1.03,0.00,29.34,32.49,35.07,13.70,48.52,1017.12,2004.02,2999.37,2756.09,3170.99,600.17,584.14,27.33,0000 0000 0000 0000 000000
2018-06-13 06:41:31,0.03,1.03,0.00,29.41,32.53,35.11,13.56,48.48,1017.11,2004.00,2998.73,2755.88,3170.31,599.96,583.65,27.38,0000 0000 0000 0000 000000
2018-06-13 06:46:32,0.03,1.03,0.00,29.46,32.57,35.14,13.64,48.66,1017.11,2003.98,2997.98,2755.08,3169.70,600.04,583.63,27.43,0000 0000 0000 0000 000000
2018-06-13 06:51:33,-0.01,1.03,0.00,29.52,32.61,35.19,13.66,48.71,1017.12,2003.62,2997.28,2754.74,3168.95,600.17,583.66,27.47,0000 0000 0000 0000 000000
2018-06-13 06:56:35,0.00,1.03,0.00,29.57,32.66,35.23,13.53,48.62,1017.11,2003.10,2996.72,2754.03,3168.10,599.67,583.16,27.53,0000 0000 0000 0000 000000
2018-06-13 07:01:36,0.03,1.03,0.00,29.64,32.70,35.29,13.65,48.54,1017.12,2003.00,2996.03,2753.69,3167.67,600.00,583.24,27.58,0000 0000 0000 0000 000000
2018-06-13 07:06:38,0.03,1.04,0.00,29.68,32.74,35.33,13.58,48.55,1017.12,2002.99,2995.36,2753.03,3167.00,600.14,583.27,27.63,0000 0000 0000 0000 000000
2018-06-13 07:11:39,0.02,1.04,0.00,29.74,32.79,35.39,13.59,48.63,1017.12,2002.92,2994.72,2752.73,3166.23,599.80,582.88,27.68,0000 0000 0000 0000 000000
2018-06-13 07:16:40,-0.03,1.04,0.00,29.79,32.83,35.43,13.58,48.51,1017.12,2002.35,2993.94,2752.05,3165.53,600.00,582.94,27.73,0000 0000 0000 0000 000000
2018-06-13 07:21:41,0.03,1.04,0.00,29.86,32.88,35.47,13.61,48.62,1017.11,2002.06,2993.07,2751.40,3164.96,600.09,582.92,27.78,0000 0000 0000 0000 000000
2018-06-13 07:26:43,0.03,1.04,0.00,29.93,32.92,35.51,13.62,48.60,1017.12,2002.00,2992.43,2751.00,3164.16,600.29,583.01,27.83,0000 0000 0000 0000 000000
2018-06-13 07:31:44,0.05,1.04,0.00,30.00,32.97,35.55,13.56,48.55,1017.11,2001.99,2991.69,2750.44,3163.48,599.89,582.38,27.88,0000 0000 0000 0000 000000
2018-06-13 07:36:45,0.01,1.04,0.00,30.06,33.01,35.58,13.60,48.43,1017.13,2001.90,2990.95,2749.99,3162.92,600.30,582.73,27.93,0000 0000 0000 0000 000000
2018-06-13 07:41:47,0.02,1.04,0.00,30.11,33.06,35.62,13.60,48.52,1017.12,2001.49,2990.12,2749.24,3162.11,600.15,582.50,27.98,0000 0000 0000 0000 000000
2018-06-13 07:46:48,0.01,1.04,0.00,30.16,33.11,35.65,13.62,48.51,1017.12,2001.15,2989.32,2748.90,3161.61,600.39,582.64,28.03,0000 0000 0000 0000 000000
2018-06-13 07:51:49,0.03,1.05,0.00,30.23,33.16,35.70,13.59,48.45,1017.13,2001.03,2988.57,2748.17,3160.98,600.03,582.18,28.08,0000 0000 0000 0000 000000
2018-06-13 07:56:51,0.02,1.05,0.00,30.30,33.22,35.75,13.60,48.48,1017.24,2001.00,2987.98,2747.93,3160.18,600.29,582.37,28.13,0000 0000 0000 0000 000000
2018-06-13 08:01:52,0.05,1.05,0.00,30.35,33.27,35.78,13.52,48.49,1017.39,2000.98,2987.20,2747.14,3159.58,600.07,582.07,28.18,0000 0000 0000 0000 000000
2018-06-13 08:06:53,0.02,1.05,0.00,30.40,33.32,35.83,13.52,48.27,1017.43,2000.82,2986.24,2746.62,3158.95,599.77,581.82,28.23,0000 0000 0000 0000 000000
2018-06-13 08:11:54,-0.00,1.05,0.00,30.46,33.38,35.90,13.55,48.40,1017.54,2000.58,2985.36,2746.01,3158.14,600.13,582.02,28.28,0000 0000 0000 0000 000000
2018-06-13 08:16:56,0.03,1.05,0.00,30.52,33.43,35.97,13.59,48.38,1017.56,2000.03,2984.55,2745.29,3157.33,600.07,581.86,28.33,0000 0000 0000 0000 000000
2018-06-13 08:21:57,0.03,1.05,0.00,30.59,33.49,36.02,13.65,48.49,1017.52,2000.00,2983.95,2744.81,3156.60,600.21,581.89,28.38,0000 0000 0000 0000 000000
2018-06-13 08:26:59,0.01,1.06,0.00,30.64,33.55,36.08,13.56,48.51,1017.56,1999.76,2983.26,2744.08,3155.89,600.00,581.69,28.43,0000 0000 0000 0000 000000
2018-06-13 08:32:00,-0.01,1.05,0.00,30.69,33.60,36.13,13.56,48.51,1017.59,1999.09,2982.46,2743.57,3155.05,599.93,581.44,28.48,0000 0000 0000 0000 000000
2018-06-13 08:37:01,0.02,1.06,0.00,30.75,33.66,36.19,13.59,48.49,1017.59,1999.00,2981.82,2743.01,3154.38,600.33,581.52,28.53,0000 0000 0000 0000 000000
2018-06-13 08:42:02,0.04,1.06,0.00,30.81,33.71,36.24,13.57,48.43,1017.59,1998.90,2980.95,2742.38,3153.65,600.09,581.33,28.58,0000 0000 0000 0000 000000
2018-06-13 08:47:03,-0.03,1.06,0.00,30.86,33.77,36.30,13.56,48.57,1017.59,1998.34,2980.11,2741.93,3152.97,599.73,580.96,28.63,0000 0000 0000 0000 000000
2018-06-13 08:52:05,0.04,1.06,0.00,30.92,33.82,36.36,13.57,48.38,1017.59,1998.02,2979.24,2741.12,3152.14,600.05,581.06,28.68,0000 0000 0000 0000 000000
2018-06-13 08:57:06,0.06,1.06,0.00,30.97,33.88,36.41,13.53,48.38,1017.58,1998.00,2978.15,2740.37,3151.26,599.98,580.97,28.73,0000 0000 0000 0000 000000
2018-06-13 09:02:08,0.03,1.06,0.00,31.03,33.94,36.46,13.65,48.34,1017.59,1997.99,2977.17,2739.85,3150.49,600.25,581.05,28.78,0000 0000 0000 0000 000000
2018-06-13 09:07:09,0.01,1.06,0.00,31.09,33.99,36.53,13.54,48.42,1017.59,1997.71,2976.45,2739.10,3149.79,600.08,580.93,28.83,0000 0000 0000 0000 000000
2018-06-13 09:12:10,0.01,1.06,0.00,31.16,34.05,36.58,13.59,48.42,1017.59,1997.06,2975.60,2738.52,3148.92,600.40,580.92,28.88,0000 0000 0000 0000 000000
2018-06-13 09:17:12,0.04,1.07,0.00,31.22,34.11,36.63,13.53,48.48,1017.59,1997.00,2974.50,2737.86,3148.07,600.01,580.42,28.93,0000 0000 0000 0000 000000
2018-06-13 09:22:14,0.05,1.07,0.00,31.27,34.17,36.70,13.54,48.17,1017.59,1996.95,2973.58,2737.05,3147.22,600.16,580.57,28.98,0000 0000 0000 0000 000000
2018-06-13 09:27:15,0.01,1.07,0.00,31.32,34.22,36.74,13.53,48.31,1017.59,1996.60,2972.57,2736.43,3146.42,599.97,580.30,29.03,0000 0000 0000 0000 000000
2018-06-13 09:32:16,0.02,1.07,0.00,31.39,34.28,36.80,13.54,48.28,1017.59,1996.06,2971.53,2735.73,3145.50,599.93,580.04,29.08,0000 0000 0000 0000 000000
2018-06-13 09:37:17,0.05,1.07,0.00,31.46,34.34,36.85,13.51,48.23,1017.59,1996.00,2970.54,2734.97,3144.64,599.75,579.80,29.13,0000 0000 0000 0000 000000
2018-06-13 09:42:18,0.06,1.08,0.00,31.52,34.39,36.91,13.49,48.32,1017.59,1995.99,2969.44,2734.12,3143.73,600.03,579.96,29.18,0000 0000 0000 0000 000000
2018-06-13 09:47:20,0.02,1.08,0.00,31.58,34.45,36.96,13.54,48.21,1017.59,1995.74,2968.35,2733.37,3142.80,600.07,579.84,29.23,0000 0000 0000 0000 000000
2018-06-13 09:52:21,0.01,1.08,0.00,31.65,34.51,37.02,13.57,48.33,1017.58,1995.06,2967.27,2732.64,3141.81,600.35,579.96,29.28,0000 0000 0000 0000 000000
2018-06-13 09:57:22,0.04,1.08,0.00,31.71,34.57,37.08,13.51,48.38,1017.58,1995.00,2966.07,2731.86,3140.83,599.90,579.46,29.33,0000 0000 0000 0000 000000
2018-06-13 10:02:24,0.05,1.08,0.00,31.77,34.63,37.15,13.50,48.51,1017.59,1994.97,2964.99,2731.04,3139.88,600.21,579.69,29.38,0000 0000 0000 0000 000000
2018-06-13 10:07:25,0.01,1.08,0.00,31.81,34.69,37.24,13.48,48.28,1017.59,1994.54,2963.83,2730.20,3138.90,599.77,579.26,29.43,0000 0000 0000 0000 000000
2018-06-13 10:12:26,0.04,1.08,0.00,31.85,34.75,37.32,13.46,48.36,1017.59,1994.15,2962.66,2729.44,3138.00,599.84,579.15,29.48,0000 0000 0000 0000 000000
2018-06-13 10:17:27,0.05,1.09,0.00,31.85,34.81,37.39,13.48,48.08,1017.61,1994.01,2961.49,2728.64,3137.05,600.09,579.35,29.53,0000 0000 0000 0000 000000
2018-06-13 10:22:29,0.04,1.09,0.00,31.87,34.87,37.43,13.57,48.16,1017.60,1993.98,2960.29,2727.87,3135.99,600.28,579.62,29.58,0000 0000 0000 0000 000000
2018-06-13 10:27:30,0.05,1.09,0.00,31.94,34.93,37.44,13.47,48.02,1017.60,1993.89,2959.03,2726.98,3135.05,599.86,578.99,29.63,0000 0000 0000 0000 000000
2018-06-13 10:32:31,-0.01,1.09,0.00,31.98,34.98,37.48,13.46,48.13,1017.61,1993.29,2958.03,2726.11,3134.20,599.75,578.88,29.68,0000 0000 0000 0000 000000
2018-06-13 10:37:32,0.05,1.09,0.00,32.01,35.04,37.48,13.52,47.99,1017.60,1992.99,2957.27,2725.53,3133.30,599.93,578.97,29.73,0000 0000 0000 0000 000000
2018-06-13 10:42:34,0.04,1.10,0.00,32.06,35.10,37.52,13.57,48.02,1017.60,1992.81,2956.08,2724.68,3132.27,600.21,579.01,29.78,0000 0000 0000 0000 000000
2018-06-13 10:47:35,-0.02,1.10,0.00,32.07,35.16,37.59,13.47,48.03,1017.61,1992.21,2955.09,2724.00,3131.47,600.04,578.91,29.83,0000 0000 0000 0000 000000
2018-06-13 10:52:36,0.06,1.10,0.00,32.10,35.22,37.68,13.43,47.83,1017.61,1992.00,2954.12,2723.25,3130.50,599.70,578.64,29.88,0000 0000 0000 0000 000000
2018-06-13 10:57:37,0.05,1.10,0.00,32.10,35.28,37.75,13.48,48.07,1017.61,1991.97,2953.00,2722.57,3129.67,599.74,578.56,29.93,0000 0000 0000 0000 000000
2018-06-13 11:02:38,0.04,1.10,0.00,32.12,35.33,37.80,13.50,47.93,1017.63,1991.83,2951.82,2721.80,3128.78,599.95,578.75,29.98,0000 0000 0000 0000 000000
2018-06-13 11:07:40,-0.00,1.10,0.00,32.15,35.39,37.78,13.48,47.77,1017.63,1991.36,2950.73,2721.01,3127.91,599.54,578.30,30.03,0000 0000 0000 0000 000000
2018-06-13 11:12:41,0.05,1.11,0.00,32.15,35.44,37.80,13.46,47.85,1017.68,1991.07,2949.60,2720.22,3126.92,599.84,578.77,30.08,0000 0000 0000 0000 000000
2018-06-13 11:17:43,0.06,1.11,0.00,32.17,35.50,37.88,13.49,47.85,1017.78,1991.03,2948.12,2719.34,3125.98,600.06,578.85,30.13,0000 0000 0000 0000 000000
2018-06-13 11:22:44,0.07,1.11,0.00,32.20,35.55,38.09,13.45,47.82,1017.75,1991.00,2946.76,2718.42,3124.99,599.80,578.54,30.18,0000 0000 0000 0000 000000
2018-06-13 11:27:46,0.07,1.12,0.00,32.23,35.60,38.26,13.55,47.88,1017.76,1991.00,2945.45,2717.52,3123.88,599.97,578.72,30.23,0000 0000 0000 0000 000000
2018-06-13 11:32:47,0.04,1.12,0.00,32.26,35.65,38.39,13.49,47.73,1017.71,1990.96,2944.28,2716.75,3122.94,599.85,578.42,30.28,0000 0000 0000 0000 000000
2018-06-13 11:37:49,0.02,1.12,0.00,32.31,35.71,38.58,13.49,47.77,1017.83,1990.71,2943.17,2715.95,3121.93,599.92,578.48,30.33,0000 0000 0000 0000 000000
2018-06-13 11:42:50,0.02,1.12,0.00,32.35,35.77,38.46,13.48,47.54,1017.90,1990.34,2942.09,2715.16,3121.06,599.95,578.54,30.38,0000 0000 0000 0000 000000
2018-06-13 11:47:51,0.05,1.12,0.00,32.38,35.82,38.61,13.51,47.63,1018.00,1990.03,2940.92,2714.43,3120.24,600.06,578.59,30.43,0000 0000 0000 0000 000000
2018-06-13 11:52:52,0.06,1.13,0.00,32.41,35.87,38.64,13.49,47.77,1018.05,1989.99,2939.78,2713.63,3119.20,600.33,578.81,30.48,0000 0000 0000 0000 000000
2018-06-13 11:57:54,0.03,1.13,0.00,32.42,35.91,38.81,13.50,47.77,1018.05,1989.89,2938.69,2712.95,3118.30,599.88,578.35,30.53,0000 0000 0000 0000 000000
2018-06-13 12:02:55,-0.01,1.13,0.00,32.46,35.95,38.84,13.51,47.92,1018.04,1989.23,2937.63,2712.12,3117.43,599.79,578.24,30.58,0000 0000 0000 0000 000000
2018-06-13 12:07:57,0.05,1.13,0.00,32.47,35.99,38.85,13.53,47.84,1018.02,1989.01,2936.62,2711.50,3116.59,600.01,578.42,30.63,0000 0000 0000 0000 000000
2018-06-13 12:12:58,0.04,1.13,0.00,32.50,36.02,38.84,13.59,47.83,1017.96,1989.00,2935.65,2710.87,3115.79,600.29,578.55,30.68,0000 0000 0000 0000 000000
2018-06-13 12:17:59,0.06,1.14,0.00,32.50,36.05,38.82,13.54,47.73,1017.99,1988.99,2934.55,2710.06,3114.90,600.24,578.53,30.73,0000 0000 0000 0000 000000
2018-06-13 12:23:00,0.05,1.14,0.00,32.50,36.08,38.80,13.52,47.77,1018.06,1988.92,2933.55,2709.40,3114.07,600.11,578.44,30.78,0000 0000 0000 0000 000000
2018-06-13 12:28:02,-0.00,1.14,0.00,32.51,36.10,38.79,13.54,47.77,1018.06,1988.61,2932.57,2708.92,3113.30,600.19,578.53,30.83,0000 0000 0000 0000 000000
2018-06-13 12:33:03,0.02,1.14,0.00,32.52,36.12,38.76,13.51,47.71,1018.07,1988.16,2931.61,2708.12,3112.59,599.88,578.27,30.88,0000 0000 0000 0000 000000
2018-06-13 12:38:05,0.04,1.14,0.00,32.52,36.14,38.75,13.60,47.73,1018.07,1988.02,2930.61,2707.56,3111.84,600.31,578.59,30.93,0000 0000 0000 0000 000000
2018-06-13 12:43:05,0.03,1.14,0.00,32.53,36.15,38.74,13.50,47.78,1018.08,1988.00,2929.71,2707.01,3111.06,599.83,578.12,30.98,0000 0000 0000 0000 000000
2018-06-13 12:48:07,0.05,1.15,0.00,32.55,36.17,38.76,13.55,47.74,1018.07,1988.00,2928.88,2706.47,3110.48,599.95,578.19,31.03,0000 0000 0000 0000 000000
2018-06-13 12:53:08,0.03,1.15,0.00,32.57,36.18,38.74,13.61,47.68,1018.08,1988.00,2927.99,2705.99,3109.85,600.06,578.26,31.08,0000 0000 0000 0000 000000
2018-06-13 12:58:09,0.05,1.15,0.00,32.57,36.19,38.73,13.54,47.53,1018.08,1987.99,2927.07,2705.23,3109.05,600.11,578.28,31.13,0000 0000 0000 0000 000000